Time,TemperatureF,DewpointF,PressureIn,WindDirection,WindDirectionDegrees,WindSpeedMPH,WindSpeedGustMPH,Humidity,HourlyPrecipIn,Conditions,Clouds,dailyrainin,SoftwareType,DateUTC
2013-12-07 00:23:00,1.0,-3.0,30.63,SW,232,3.0,6.0,82,0.00,,,0.00,,2013-12-07 06:23:00,
2013-12-07 00:43:00,1.0,-3.0,30.63,SW,234,2.0,5.0,82,0.00,,,0.00,,2013-12-07 06:43:00,
2013-12-07 00:53:00,0.0,-4.0,30.63,SSE,164,1.0,6.0,82,0.00,,,0.00,,2013-12-07 06:53:00,
2013-12-07 01:22:00,0.0,-4.0,30.63,SSE,167,1.0,7.0,82,0.00,,,0.00,,2013-12-07 07:22:00,
2013-12-07 01:42:00,0.0,-4.0,30.64,SW,234,1.0,5.0,82,0.00,,,0.00,,2013-12-07 07:42:00,
2013-12-07 01:52:00,0.0,-4.0,30.64,SW,232,2.0,6.0,82,0.00,,,0.00,,2013-12-07 07:52:00,
2013-12-07 02:12:00,0.0,-4.0,30.65,South,179,2.0,5.0,82,0.00,,,0.00,,2013-12-07 08:12:00,
2013-12-07 02:22:00,-1.0,-5.0,30.66,SW,231,2.0,7.0,82,0.00,,,0.00,,2013-12-07 08:22:00,
2013-12-07 02:42:00,-1.0,-5.0,30.66,West,260,1.0,6.0,83,0.00,,,0.00,,2013-12-07 08:42:00,
2013-12-07 02:52:00,-1.0,-5.0,30.66,WSW,242,2.0,6.0,82,0.00,,,0.00,,2013-12-07 08:52:00,
2013-12-07 03:12:00,-1.0,-5.0,30.67,SSW,202,1.0,8.0,82,0.00,,,0.00,,2013-12-07 09:12:00,
2013-12-07 03:22:00,-1.0,-5.0,30.67,South,188,3.0,8.0,83,0.00,,,0.00,,2013-12-07 09:22:00,
2013-12-07 03:43:00,-1.0,-5.0,30.68,SW,225,2.0,7.0,82,0.00,,,0.00,,2013-12-07 09:43:00,
2013-12-07 03:53:00,-2.0,-6.0,30.67,SSW,211,2.0,7.0,82,0.00,,,0.00,,2013-12-07 09:53:00,
2013-12-07 04:23:00,-2.0,-6.0,30.68,SW,215,2.0,7.0,82,0.00,,,0.00,,2013-12-07 10:23:00,
2013-12-07 04:43:00,-3.0,-7.0,30.69,WSW,258,3.0,7.0,82,0.00,,,0.00,,2013-12-07 10:43:00,
2013-12-07 04:53:00,-3.0,-7.0,30.69,West,260,1.0,9.0,82,0.00,,,0.00,,2013-12-07 10:53:00,
2013-12-07 05:22:00,-4.0,-8.0,30.69,WSW,244,2.0,9.0,82,0.00,,,0.00,,2013-12-07 11:22:00,
2013-12-07 05:42:00,-4.0,-8.0,30.69,WSW,245,2.0,7.0,82,0.00,,,0.00,,2013-12-07 11:42:00,
2013-12-07 05:52:00,-4.0,-8.0,30.69,SW,230,2.0,8.0,82,0.00,,,0.00,,2013-12-07 11:52:00,
2013-12-07 06:12:00,-5.0,-9.0,30.69,WSW,250,2.0,7.0,82,0.00,,,0.00,,2013-12-07 12:12:00,
2013-12-07 06:22:00,-5.0,-9.0,30.70,SSW,205,2.0,7.0,82,0.00,,,0.00,,2013-12-07 12:22:00,
2013-12-07 06:42:00,-6.0,-10.0,30.70,WSW,257,3.0,8.0,82,0.00,,,0.00,,2013-12-07 12:42:00,
2013-12-07 06:52:00,-6.0,-10.0,30.70,South,188,2.0,7.0,82,0.00,,,0.00,,2013-12-07 12:52:00,
2013-12-07 07:11:00,-6.0,-10.0,30.71,WSW,238,2.0,9.0,82,0.00,,,0.00,,2013-12-07 13:11:00,
2013-12-07 07:22:00,-6.0,-10.0,30.71,South,189,3.0,6.0,82,0.00,,,0.00,,2013-12-07 13:22:00,
2013-12-07 07:42:00,-7.0,-11.0,30.71,South,186,3.0,8.0,82,0.00,,,0.00,,2013-12-07 13:42:00,
2013-12-07 07:52:00,-7.0,-11.0,30.72,WNW,292,2.0,7.0,81,0.00,,,0.00,,2013-12-07 13:52:00,
2013-12-07 08:22:00,-8.0,-12.0,30.72,SW,222,2.0,12.0,81,0.00,,,0.00,,2013-12-07 14:22:00,
2013-12-07 08:42:00,-8.0,-12.0,30.72,WSW,255,2.0,7.0,80,0.00,,,0.00,,2013-12-07 14:42:00,
2013-12-07 08:52:00,-9.0,-14.0,30.73,South,186,2.0,7.0,79,0.00,,,0.00,,2013-12-07 14:52:00,
2013-12-07 09:11:00,-9.0,-14.0,30.73,WSW,238,2.0,7.0,79,0.00,,,0.00,,2013-12-07 15:11:00,
2013-12-07 09:21:00,-9.0,-14.0,30.74,SW,219,1.0,7.0,79,0.00,,,0.00,,2013-12-07 15:21:00,
2013-12-07 09:43:00,-9.0,-14.0,30.74,SW,220,3.0,8.0,79,0.00,,,0.00,,2013-12-07 15:43:00,
2013-12-07 09:54:00,-9.0,-14.0,30.74,WNW,300,2.0,7.0,79,0.00,,,0.00,,2013-12-07 15:54:00,
2013-12-07 10:13:00,-8.0,-13.0,30.74,West,264,2.0,8.0,79,0.00,,,0.00,,2013-12-07 16:13:00,
2013-12-07 10:23:00,-8.0,-13.0,30.74,WSW,251,0.0,6.0,78,0.00,,,0.00,,2013-12-07 16:23:00,
2013-12-07 10:43:00,-7.0,-12.0,30.74,SW,227,3.0,7.0,78,0.00,,,0.00,,2013-12-07 16:43:00,
2013-12-07 10:53:00,-5.0,-10.0,30.74,SW,226,4.0,8.0,77,0.00,,,0.00,,2013-12-07 16:53:00,
2013-12-07 11:12:00,-4.0,-10.0,30.74,South,180,1.0,6.0,75,0.00,,,0.00,,2013-12-07 17:12:00,
2013-12-07 11:22:00,-3.0,-9.0,30.74,WNW,288,3.0,9.0,74,0.00,,,0.00,,2013-12-07 17:22:00,
2013-12-07 11:43:00,-2.0,-9.0,30.73,SW,216,2.0,10.0,73,0.00,,,0.00,,2013-12-07 17:43:00,
2013-12-07 11:52:00,-2.0,-9.0,30.72,SW,234,3.0,8.0,73,0.00,,,0.00,,2013-12-07 17:52:00,
2013-12-07 12:12:00,-1.0,-8.0,30.72,SSE,155,2.0,7.0,73,0.00,,,0.00,,2013-12-07 18:12:00,
2013-12-07 12:22:00,-1.0,-8.0,30.71,SW,234,4.0,8.0,72,0.00,,,0.00,,2013-12-07 18:22:00,
2013-12-07 12:43:00,0.0,-7.0,30.70,South,174,2.0,7.0,71,0.00,,,0.00,,2013-12-07 18:43:00,
2013-12-07 12:52:00,0.0,-7.0,30.70,WSW,245,4.0,10.0,71,0.00,,,0.00,,2013-12-07 18:52:00,
2013-12-07 13:11:00,0.0,-7.0,30.69,SSE,148,2.0,10.0,70,0.00,,,0.00,,2013-12-07 19:11:00,
2013-12-07 13:22:00,1.0,-6.0,30.70,SW,222,3.0,10.0,70,0.00,,,0.00,,2013-12-07 19:22:00,
2013-12-07 13:42:00,1.0,-6.0,30.69,South,185,3.0,11.0,70,0.00,,,0.00,,2013-12-07 19:42:00,
2013-12-07 13:52:00,1.0,-6.0,30.69,SSW,192,2.0,7.0,70,0.00,,,0.00,,2013-12-07 19:52:00,
2013-12-07 14:11:00,1.0,-6.0,30.68,SW,221,3.0,11.0,70,0.00,,,0.00,,2013-12-07 20:11:00,
2013-12-07 14:22:00,1.0,-6.0,30.68,WSW,252,3.0,9.0,70,0.00,,,0.00,,2013-12-07 20:22:00,
2013-12-07 14:42:00,1.0,-6.0,30.68,SSW,211,2.0,8.0,70,0.00,,,0.00,,2013-12-07 20:42:00,
2013-12-07 14:52:00,2.0,-6.0,30.67,SW,232,3.0,8.0,70,0.00,,,0.00,,2013-12-07 20:52:00,
2013-12-07 15:11:00,2.0,-6.0,30.67,SW,232,2.0,7.0,69,0.00,,,0.00,,2013-12-07 21:11:00,
2013-12-07 15:22:00,2.0,-6.0,30.67,WSW,249,2.0,10.0,69,0.00,,,0.00,,2013-12-07 21:22:00,
2013-12-07 15:43:00,2.0,-6.0,30.67,SSE,167,2.0,11.0,70,0.00,,,0.00,,2013-12-07 21:43:00,
2013-12-07 15:53:00,2.0,-6.0,30.67,SSW,197,2.0,12.0,70,0.00,,,0.00,,2013-12-07 21:53:00,
2013-12-07 16:13:00,1.0,-6.0,30.67,SW,229,3.0,7.0,70,0.00,,,0.00,,2013-12-07 22:13:00,
2013-12-07 16:23:00,1.0,-6.0,30.67,WSW,249,4.0,11.0,70,0.00,,,0.00,,2013-12-07 22:23:00,
2013-12-07 16:42:00,1.0,-6.0,30.68,SW,232,1.0,5.0,71,0.00,,,0.00,,2013-12-07 22:42:00,
2013-12-07 16:53:00,0.0,-7.0,30.68,SW,227,2.0,8.0,72,0.00,,,0.00,,2013-12-07 22:53:00,
2013-12-07 17:12:00,0.0,-7.0,30.68,SSW,205,2.0,7.0,73,0.00,,,0.00,,2013-12-07 23:12:00,
2013-12-07 17:22:00,0.0,-7.0,30.68,West,279,1.0,7.0,73,0.00,,,0.00,,2013-12-07 23:22:00,
2013-12-07 17:42:00,0.0,-6.0,30.68,SSW,200,2.0,9.0,74,0.00,,,0.00,,2013-12-07 23:42:00,
2013-12-07 17:52:00,0.0,-6.0,30.69,SSW,205,3.0,7.0,74,0.00,,,0.00,,2013-12-07 23:52:00,
2013-12-07 18:11:00,-1.0,-7.0,30.70,SW,215,3.0,10.0,74,0.00,,,0.00,,2013-12-08 00:11:00,
2013-12-07 18:22:00,-1.0,-7.0,30.70,West,265,1.0,7.0,74,0.00,,,0.00,,2013-12-08 00:22:00,
2013-12-07 18:42:00,-1.0,-7.0,30.71,SW,225,0.0,7.0,75,0.00,,,0.00,,2013-12-08 00:42:00,
2013-12-07 18:52:00,-2.0,-8.0,30.71,SSW,210,1.0,4.0,75,0.00,,,0.00,,2013-12-08 00:52:00,
2013-12-07 19:12:00,-2.0,-8.0,30.71,SW,214,1.0,4.0,76,0.00,,,0.00,,2013-12-08 01:12:00,
2013-12-07 19:22:00,-2.0,-7.0,30.71,SSW,207,1.0,5.0,77,0.00,,,0.00,,2013-12-08 01:22:00,
2013-12-07 19:42:00,-2.0,-7.0,30.71,SW,236,1.0,5.0,77,0.00,,,0.00,,2013-12-08 01:42:00,
2013-12-07 19:52:00,-3.0,-8.0,30.71,SW,214,0.0,4.0,77,0.00,,,0.00,,2013-12-08 01:52:00,
2013-12-07 20:22:00,-3.0,-8.0,30.71,SW,217,0.0,1.0,77,0.00,,,0.00,,2013-12-08 02:22:00,
2013-12-07 20:43:00,-4.0,-9.0,30.71,SW,217,0.0,2.0,78,0.00,,,0.00,,2013-12-08 02:43:00,
2013-12-07 20:52:00,-4.0,-9.0,30.71,SW,217,0.0,1.0,78,0.00,,,0.00,,2013-12-08 02:52:00,
2013-12-07 21:11:00,-5.0,-10.0,30.70,SW,217,0.0,2.0,79,0.00,,,0.00,,2013-12-08 03:11:00,
2013-12-07 21:22:00,-5.0,-10.0,30.70,SW,215,0.0,1.0,80,0.00,,,0.00,,2013-12-08 03:22:00,
2013-12-07 21:54:00,-4.0,-8.0,30.70,SSW,205,0.0,2.0,81,0.00,,,0.00,,2013-12-08 03:54:00,
2013-12-07 22:02:00,-999.0,-99.9,30.70,SSW,205,0.0,3.0,-999,0.00,,,0.00,,2013-12-08 04:02:00,
2013-12-07 22:23:00,-5.0,-10.0,30.69,SSW,205,0.0,2.0,80,0.00,,,0.00,,2013-12-08 04:23:00,
2013-12-07 22:53:00,-6.0,-11.0,30.69,SSW,205,0.0,0.0,80,0.00,,,0.00,,2013-12-08 04:53:00,
2013-12-07 23:23:00,-7.0,-12.0,30.69,SSW,205,0.0,0.0,80,0.00,,,0.00,,2013-12-08 05:23:00,
2013-12-07 23:43:00,-8.0,-12.0,30.70,SSW,205,0.0,0.0,81,0.00,,,0.00,,2013-12-08 05:43:00,
2013-12-07 23:53:00,-8.0,-12.0,30.70,SSW,205,0.0,0.0,81,0.00,,,0.00,,2013-12-08 05:53:00,